Location: ??????????
(44.2167°N, 135.5333°E)
Time: 14:57:29
(UTC+00:00)

Meteor 1-11 - Pass Details

Date: 15 June 2025
Orbit: 833 x 891 km, 81.2° (Epoch: 15 July)

Event Time Altitude Azimuth Distance (km) Brightness Sun altitude
Exits shadow 16:51:46 29° 201° (SSW) 1,539 5.0 -17.6°
Maximum altitude 16:54:48 75° 282° (WNW) 914 4.3 -17.4°
Drops below altitude 10° 17:00:38 10° 7° (N) 2,559 7.8 -16.9°
Sets 17:03:07 0° 10° (N) 3,507 8.8 -16.7°
